Wappingers Falls, NY

11:41 AM EST on February 25, 2017 (GMT -0500)
Dutchess County

Weather History for KPOU - January, 2015

Change the Weather History Date:

Wednesday, January 14, 2015

  Actual Average Record
Temperature  
Mean Temperature 14 °F 25 °F  
Max Temperature 24 °F 35 °F 64 °F (2005)
Min Temperature 4 °F 15 °F -14 °F (1954)
Degree Days  
Heating Degree Days 51 40  
Month to date heating degree days 566 552  
Since 1 July heating degree days 2617 2881  
Cooling Degree Days 0 0  
Month to date cooling degree days 0 0  
Year to date cooling degree days 0 0  
Moisture  
Dew Point 3 °F    
Average Humidity 60    
Maximum Humidity 68    
Minimum Humidity 51    
Precipitation  
Precipitation 0.00 in 0.10 in 1.51 in (2005)
Month to date precipitation 1.33 1.43  
Year to date precipitation 1.33 1.43  
Sea Level Pressure  
Sea Level Pressure 30.42 in    
Wind  
Wind Speed 2 mph (North)    
Max Wind Speed 9 mph    
Max Gust Speed 10 mph    
Visibility 10 miles    
Events      
T = Trace of Precipitation, MM = Missing Value Source: NWS Daily Summary

Daily Weather History Graph

Daily Weather History Graph

Search for Another Location

Airport or City:

Trip Planner

Search our weather history database for the weather conditions in past years. The results will help you decide how hot, cold, wet, or windy it might be!

Date:

Astronomy

Jan. 14, 2015 Rise Set
Actual Time 7:20 AM EST 4:48 PM EST
Civil Twilight 6:49 AM EST 5:19 PM EST
Nautical Twilight 6:15 AM EST 5:53 PM EST
Astronomical Twilight 5:42 AM EST 6:27 PM EST
Moon 1:09 AM EST (1/14) 12:03 PM EST (1/14)
Length of Visible Light 10h 29m
Length of Day
9h 28m
Last Quarter, 37% of the Moon is Illuminated
Jan 14
Last Quarter
Jan 20
New
Jan 26
First Quarter
Feb 3
Full
Feb 11
Last Quarter

Hourly Weather History & Observations

Time (EST) Temp. Windchill Dew Point Humidity Pressure Visibility Wind Dir Wind Speed Gust Speed Precip Events Conditions
12:53 AM 6.1 °F -2.8 °F -5.1 °F 60% 30.64 in 10.0 mi North 4.6 mph - N/A   Clear
1:53 AM 6.1 °F - -6.0 °F 58% 30.63 in 10.0 mi Calm Calm - N/A   Clear
2:53 AM 5.0 °F - -5.1 °F 63% 30.61 in 10.0 mi Calm Calm - N/A   Clear
3:53 AM 5.0 °F -4.1 °F -6.0 °F 61% 30.59 in 10.0 mi North 4.6 mph - N/A   Clear
4:49 AM 3.2 °F - -5.8 °F 66% 30.57 in 10.0 mi Calm Calm - N/A   Mostly Cloudy
4:53 AM 3.9 °F - -6.0 °F 64% 30.58 in 10.0 mi Calm Calm - N/A   Mostly Cloudy
5:07 AM 3.9 °F - -6.0 °F 64% 30.57 in 10.0 mi Calm Calm - N/A   Scattered Clouds
5:41 AM 3.9 °F -3.4 °F -6.0 °F 64% 30.55 in 10.0 mi NNE 3.5 mph - N/A   Mostly Cloudy
5:53 AM 3.9 °F -3.4 °F -5.1 °F 66% 30.55 in 10.0 mi NNE 3.5 mph - N/A   Partly Cloudy
6:53 AM 3.9 °F - -5.1 °F 66% 30.54 in 10.0 mi Calm Calm - N/A   Clear
7:53 AM 5.0 °F -5.6 °F -5.1 °F 63% 30.51 in 10.0 mi North 5.8 mph - N/A   Clear
8:37 AM 6.1 °F - -5.1 °F 60% 30.55 in 10.0 mi Calm Calm - N/A   Mostly Cloudy
8:53 AM 7.0 °F - -4.0 °F 61% 30.54 in 10.0 mi Calm Calm - N/A   Mostly Cloudy
9:53 AM 10.0 °F 0.4 °F -2.0 °F 58% 30.51 in 10.0 mi Variable 5.8 mph - N/A   Scattered Clouds
10:53 AM 12.0 °F - -0.9 °F 56% 30.46 in 10.0 mi Calm Calm - N/A   Clear
11:53 AM 15.1 °F - 3.0 °F 59% 30.41 in 10.0 mi Calm Calm - N/A   Scattered Clouds
12:53 PM 19.9 °F - 5.0 °F 52% 30.37 in 10.0 mi Calm Calm - N/A   Mostly Cloudy
1:53 PM 21.9 °F 17.2 °F 8.1 °F 55% 30.35 in 10.0 mi NW 3.5 mph - N/A   Overcast
2:53 PM 24.1 °F 19.7 °F 10.0 °F 55% 30.32 in 10.0 mi NNE 3.5 mph - N/A   Overcast
3:00 PM 24.1 °F - 10.0 °F 55% 30.32 in 10.0 mi Calm Calm - N/A   Overcast
3:53 PM 24.1 °F 18.2 °F 12.0 °F 60% 30.31 in 10.0 mi NNW 4.6 mph - N/A   Overcast
4:18 PM 24.1 °F - 12.0 °F 60% 30.30 in 10.0 mi Calm Calm - N/A   Overcast
4:33 PM 24.1 °F - 12.0 °F 60% 30.30 in 10.0 mi Calm Calm - N/A   Overcast
4:53 PM 24.1 °F - 12.0 °F 60% 30.30 in 10.0 mi Calm Calm - N/A   Overcast
5:53 PM 24.1 °F - 12.0 °F 60% 30.28 in 10.0 mi Calm Calm - N/A   Mostly Cloudy
6:00 PM 23.0 °F 18.4 °F 12.0 °F 63% 30.28 in 10.0 mi NNE 3.5 mph - N/A   Scattered Clouds
6:53 PM 23.0 °F - 14.0 °F 68% 30.28 in 10.0 mi Calm Calm - N/A   Overcast
7:53 PM 23.0 °F - 14.0 °F 68% 30.27 in 10.0 mi Calm Calm - N/A   Overcast
8:53 PM 21.9 °F 15.7 °F 12.9 °F 68% 30.25 in 10.0 mi NNE 4.6 mph - N/A   Overcast
9:53 PM 21.9 °F 17.2 °F 12.0 °F 66% 30.25 in 10.0 mi NE 3.5 mph - N/A   Overcast
10:53 PM 21.0 °F 14.6 °F 12.0 °F 68% 30.24 in 10.0 mi North 4.6 mph - N/A   Overcast
11:53 PM 21.0 °F 16.2 °F 12.0 °F 68% 30.21 in 10.0 mi WNW 3.5 mph - N/A   Overcast